[[{"header":{"parameterUnit":"m.s-1","parameterCategory":1,"la1":30.2991,"la2":30.254,"lo1":-89.0895,"lo2":-89.0444,"dy":0.0017,"dx":0.0017,"nx":28,"ny":28,"refTime":"2026-01-31T09:00:00:Z","depth":0,"parameterNumber":2,"parameterNumberName":"U-component_of_WINDS"},"data":[0,0,0,0,0,0,0,0,0,0,0,0,0,0,0,0,0,0,0,0,0,0,0,0,0,0,0,0,0,0,0,0,0,0,0,0,0,0,0,0,0,0,0,0,0,0,0,0,0,0,0,0,0,0,0,0,0,0,2.9544,2.9545,0,2.9616,2.9617,2.9617,2.9552,2.9549,2.9546,2.9544,2.9617,2.9622,2.9626,0,0,0,0,0,0,0,0,0,0,0,0,0,2.9348,2.9352,2.9544,2.9545,2.9546,2.9616,2.9617,2.9618,2.9552,2.9549,2.9546,2.9543,2.9616,2.9621,2.9627,0,0,0,0,0,0,0,0,0,0,0,0,0,2.9428,2.9353,2.9544,2.9521,2.952,2.9616,2.9617,2.9618,2.9553,2.9549,2.9545,2.9541,2.9614,2.9621,2.9627,2.9749,0,0,2.9648,2.9651,0,0,0,0,0,0,0,0,2.9423,2.9435,2.9524,2.9523,2.9522,2.9571,2.9575,2.9662,2.9554,2.954,2.9544,2.9539,2.9605,2.9612,2.9635,2.9752,2.9755,2.9648,2.9652,2.9655,2.9657,0,0,0,0,0,0,0,2.9418,2.9432,2.9572,2.9525,2.9524,2.9507,2.9514,2.9591,2.9594,2.9541,2.9537,2.9546,2.9604,2.9628,2.9636,2.9756,2.9648,2.9654,2.9658,2.9661,2.9974,2.9978,0,0,0,0,0,0,2.9415,2.9427,2.957,2.9574,2.9462,2.9514,2.9522,2.9559,2.9593,2.9595,2.9549,2.9543,2.9619,2.9628,2.9638,2.978,2.9655,2.9661,2.9665,2.997,2.9975,2.998,0,0,0,0,0,0,2.9411,2.9428,2.9567,2.95,2.9516,2.9522,2.9564,2.9563,2.9587,2.9599,2.96,2.9574,2.9616,2.9629,2.9721,2.9782,2.9664,2.967,2.9965,2.9971,2.9977,3.0067,0,0,0,0,0,0,2.9406,2.9427,2.9474,2.9501,2.952,2.9649,2.9568,2.9567,2.9599,2.9591,2.9622,2.9624,2.9614,2.9711,2.9728,2.9789,2.9676,2.9959,2.9968,2.9975,3.0059,3.0076,3.0091,0,0,0,0,0,2.9399,2.9497,2.9476,2.9494,2.9578,2.9653,2.9664,2.965,2.9604,2.965,2.9658,2.9623,2.9773,2.9721,2.9739,2.9804,2.9955,2.9965,2.9975,3.0052,3.0072,3.009,0,0,0,0,0,0,2.9476,2.95,2.9478,2.9587,2.9619,2.9642,2.97,2.9673,2.9718,2.9709,2.969,2.9698,2.9795,2.9809,2.9751,2.9921,2.9857,2.987,2.9909,2.9929,2.9944,2.9938,2.9681,0,0,0,0,0,2.9506,2.9565,2.9583,2.9678,2.9694,2.9695,2.9727,2.9714,2.9745,2.9758,2.9773,2.9805,2.9859,2.9895,2.9945,3.0061,3.0066,3.0114,3.0129,3.0143,3.0154,3.0214,3.0235,3.0012,3.0012,3.0011,0,0,2.9569,2.9589,2.9627,2.9694,2.9716,2.9777,2.9706,2.9774,2.9819,2.9769,2.9856,2.9868,2.9902,3.0006,3.0052,3.002,3.0217,3.0155,3.0165,3.017,3.0226,3.0247,3.0266,3.0018,3.0017,3.0016,0,0,2.9713,2.9735,2.9815,2.9839,2.9874,2.9874,2.9893,2.992,2.9926,3.0013,2.9976,3.0029,3.0123,3.0148,3.0173,3.0326,3.0295,3.0343,3.0426,3.0484,3.0502,3.0517,3.0569,3.0589,3.0355,3.0355,3.0355,0,2.9786,2.9876,2.986,2.993,2.996,2.9917,2.9997,3.0021,3.0072,3.0093,3.0056,3.0172,3.0192,3.03,3.0337,3.036,3.038,3.0339,3.05,3.0516,3.053,3.058,3.06,3.0361,3.036,3.0359,3.0359,0,2.9963,3.0026,3.0087,3.0135,3.0172,3.0247,3.0242,3.0281,3.0264,3.0267,3.0356,3.0378,3.0432,3.0457,3.0442,3.0562,3.0541,3.0503,3.0437,3.0557,3.0603,3.0622,3.0369,3.0367,3.0365,3.0364,0,0,3.0158,3.0196,3.0218,3.0239,3.0274,3.0322,3.0395,3.0447,3.0479,3.0515,3.0574,3.0655,3.0619,3.0648,3.0635,3.0687,3.0803,3.0642,3.0642,3.0669,3.0935,3.0962,3.0984,3.0783,3.0787,3.079,3.0931,0,3.0302,3.0428,3.0415,3.0534,3.0591,3.0551,3.0614,3.0642,3.0646,3.0695,3.07,3.0756,3.0706,3.0722,3.0772,3.0779,3.0856,3.0769,3.0837,3.0839,3.0828,3.1009,3.1038,3.117,3.0949,3.0953,3.0955,0,3.0486,3.0528,3.0653,3.0677,3.07,3.0757,3.0803,3.085,3.0881,3.088,3.0912,3.089,3.0961,3.0895,3.0993,3.0934,3.0961,3.0968,3.0973,3.0978,3.0903,3.1016,3.1213,3.1232,3.0983,3.0981,3.0979,0,3.0613,3.0701,3.0786,3.0805,3.0836,3.0877,3.0892,3.0918,3.0949,3.0989,3.1009,3.1057,3.1083,3.1121,3.1112,3.1065,3.1211,3.1145,3.1211,3.1212,3.1243,3.1241,3.1444,3.1264,3.1264,3.1263,3.1263,0,3.0774,3.0852,3.0843,3.0896,3.0981,3.0965,3.1049,3.1059,3.1083,3.1135,3.1104,3.1154,3.1141,3.119,3.1184,3.1264,3.1277,3.1278,3.1275,3.1279,3.1279,3.1296,3.1285,3.1268,3.1267,3.1266,3.1265,0,3.093,3.0928,3.1018,3.104,3.1047,3.1108,3.1127,3.1175,3.1177,3.1244,3.1259,3.1262,3.1318,3.1313,3.1377,3.1373,3.1472,3.1459,3.1461,3.1458,3.1524,3.1517,3.1744,3.1772,3.1576,3.1577,3.1579,0,3.1032,3.1091,3.1118,3.1151,3.1169,3.1223,3.1254,3.1241,3.1275,3.1313,3.1357,3.141,3.1452,3.1543,3.1551,3.1599,3.1585,3.1662,3.1592,3.1595,3.1584,3.158,3.1585,3.1675,3.1677,3.1679,3.168,0,3.1213,3.1208,3.1255,3.1301,3.1339,3.1375,3.1408,3.1436,3.1426,3.1466,3.1522,3.1555,3.1619,3.1672,3.1717,3.1732,3.1704,3.1702,3.172,3.1724,3.1722,3.1722,3.1496,3.1697,3.1695,3.1694,3.1693,3.1692,3.1343,3.1393,3.1419,3.1472,3.1495,3.1525,3.1571,3.1578,3.1626,3.1676,3.1666,3.1729,3.1756,3.1814,3.1833,3.1882,3.1855,3.1881,3.1887,3.1893,3.19,3.1716,3.1891,3.189,3.189,3.1889,3.1889,0,3.152,3.1535,3.1584,3.1629,3.167,3.1641,3.1675,3.1711,3.1767,3.1795,3.1836,3.1901,3.1951,3.1962,3.2011,3.2047,3.2036,3.206,3.2057,3.206,3.1923,3.1902,3.2069,3.2069,3.2069,3.2069,3.2069,3.2069,3.1617,3.1698,3.1697,3.1788,3.1802,3.1864,3.1885,3.1913,3.1934,3.2008,3.2049,3.2056,3.2077,3.2126,3.2171,3.2172,3.2191,3.222,3.2217,3.2088,3.207,3.2053,3.2033,3.2225,3.2225,3.2349,3.235,3.2351]},{"header":{"parameterUnit":"m.s-1","parameterCategory":1,"la1":30.2991,"la2":30.254,"lo1":-89.0895,"lo2":-89.0444,"dy":0.0017,"dx":0.0017,"nx":28,"ny":28,"refTime":"2026-01-31T09:00:00:Z","depth":0,"parameterNumber":3,"parameterNumberName":"V-component_of_WINDS"},"data":[0,0,0,0,0,0,0,0,0,0,0,0,0,0,0,0,0,0,0,0,0,0,0,0,0,0,0,0,0,0,0,0,0,0,0,0,0,0,0,0,0,0,0,0,0,0,0,0,0,0,0,0,0,0,0,0,0,0,-2.2912,-2.2913,0,-2.3054,-2.3056,-2.3058,-2.3085,-2.3084,-2.3083,-2.3081,-2.3229,-2.3233,-2.3238,0,0,0,0,0,0,0,0,0,0,0,0,0,-2.2664,-2.2669,-2.2912,-2.2913,-2.2915,-2.3054,-2.3056,-2.3058,-2.3085,-2.3084,-2.3082,-2.3081,-2.3227,-2.3233,-2.3239,0,0,0,0,0,0,0,0,0,0,0,0,0,-2.2786,-2.267,-2.2911,-2.2945,-2.295,-2.3054,-2.3056,-2.3059,-2.3085,-2.3084,-2.3082,-2.308,-2.3225,-2.3232,-2.324,-2.332,0,0,-2.3262,-2.3266,0,0,0,0,0,0,0,0,-2.2779,-2.2795,-2.2939,-2.2943,-2.2948,-2.305,-2.3023,-2.3146,-2.3086,-2.3034,-2.3081,-2.3079,-2.3171,-2.3182,-2.3213,-2.3327,-2.3333,-2.3263,-2.3268,-2.3271,-2.3273,0,0,0,0,0,0,0,-2.277,-2.2789,-2.2968,-2.2941,-2.2947,-2.2954,-2.2969,-2.3046,-2.311,-2.3038,-2.3041,-2.3057,-2.3173,-2.3206,-2.3217,-2.3335,-2.3263,-2.327,-2.3274,-2.3277,-2.3523,-2.3525,0,0,0,0,0,0,-2.2756,-2.2782,-2.2964,-2.2972,-2.2858,-2.296,-2.2977,-2.3019,-2.3109,-2.3121,-2.3058,-2.3058,-2.3194,-2.3208,-2.3222,-2.3322,-2.3271,-2.3278,-2.3282,-2.3521,-2.3523,-2.3526,0,0,0,0,0,0,-2.275,-2.2772,-2.2958,-2.2878,-2.2902,-2.2966,-2.3013,-2.3023,-2.3056,-2.3125,-2.3136,-2.308,-2.3193,-2.3211,-2.3295,-2.3328,-2.3281,-2.3288,-2.3519,-2.3522,-2.3525,-2.3523,0,0,0,0,0,0,-2.2743,-2.277,-2.28,-2.2878,-2.2906,-2.3028,-2.3015,-2.3027,-2.3068,-2.3069,-2.3148,-2.3159,-2.3193,-2.3284,-2.3303,-2.3337,-2.3294,-2.3516,-2.352,-2.3524,-2.352,-2.3525,-2.353,0,0,0,0,0,-2.2734,-2.2794,-2.2802,-2.2823,-2.2946,-2.303,-2.3046,-2.3083,-2.3071,-2.3102,-2.3147,-2.3157,-2.3321,-2.3293,-2.3314,-2.3351,-2.3514,-2.3519,-2.3523,-2.3518,-2.3524,-2.353,0,0,0,0,0,0,-2.2718,-2.2805,-2.2814,-2.2901,-2.2958,-2.3035,-2.3076,-2.3089,-2.3151,-2.3149,-2.3193,-2.3211,-2.3292,-2.333,-2.3297,-2.3434,-2.3417,-2.3426,-2.3406,-2.3412,-2.3417,-2.3406,-2.33,0,0,0,0,0,-2.2725,-2.2786,-2.2858,-2.2928,-2.2956,-2.3011,-2.3049,-2.3073,-2.3134,-2.3158,-2.3209,-2.3268,-2.3333,-2.3375,-2.3438,-2.3526,-2.3544,-2.3562,-2.3567,-2.357,-2.3578,-2.3627,-2.3636,-2.3541,-2.3541,-2.3541,0,0,-2.2739,-2.2794,-2.283,-2.2927,-2.2973,-2.3036,-2.3031,-2.3097,-2.3144,-2.3168,-2.3251,-2.329,-2.3359,-2.3445,-2.3486,-2.3479,-2.3608,-2.3576,-2.3579,-2.3584,-2.3633,-2.3642,-2.365,-2.3544,-2.3543,-2.3543,0,0,-2.2797,-2.2845,-2.2908,-2.2955,-2.3027,-2.3063,-2.3078,-2.3153,-2.318,-2.3263,-2.3283,-2.334,-2.3451,-2.3499,-2.3538,-2.3615,-2.3627,-2.3635,-2.366,-2.3708,-2.3715,-2.3722,-2.375,-2.3759,-2.3642,-2.3642,-2.3642,0,-2.2806,-2.2901,-2.2939,-2.3005,-2.3047,-2.3072,-2.3136,-2.3181,-2.3269,-2.3298,-2.3289,-2.3429,-2.3478,-2.3576,-2.3595,-2.3626,-2.3645,-2.3626,-2.3711,-2.3718,-2.3725,-2.3752,-2.3762,-2.3643,-2.3643,-2.3642,-2.3642,0,-2.2908,-2.2973,-2.3016,-2.31,-2.3147,-2.3212,-2.3261,-2.3304,-2.3325,-2.3362,-2.3447,-2.3506,-2.3582,-2.3607,-2.3627,-2.3708,-2.3702,-2.3702,-2.3686,-2.3734,-2.376,-2.3771,-2.3643,-2.3643,-2.3643,-2.3643,0,0,-2.2959,-2.3064,-2.3079,-2.3118,-2.3199,-2.325,-2.3317,-2.3391,-2.3427,-2.3488,-2.3545,-2.3638,-2.3639,-2.3683,-2.371,-2.3752,-2.3809,-2.3746,-2.3749,-2.3756,-2.3903,-2.3902,-2.3913,-2.3818,-2.382,-2.3822,-2.3897,0,-2.3026,-2.3145,-2.3182,-2.3281,-2.3342,-2.3367,-2.3425,-2.3481,-2.3518,-2.3576,-2.3617,-2.3683,-2.3678,-2.3705,-2.3748,-2.3793,-2.3839,-2.3788,-2.3872,-2.3874,-2.3853,-2.3927,-2.3926,-2.3994,-2.3907,-2.3909,-2.391,0,-2.312,-2.3182,-2.3287,-2.336,-2.3387,-2.3439,-2.351,-2.3565,-2.3629,-2.3653,-2.3703,-2.3726,-2.3797,-2.3778,-2.3877,-2.3841,-2.3878,-2.3905,-2.3909,-2.3918,-2.3894,-2.3937,-2.4016,-2.4026,-2.3926,-2.3925,-2.3924,0,-2.3147,-2.3256,-2.3333,-2.3366,-2.3453,-2.3489,-2.3527,-2.359,-2.3632,-2.3695,-2.3723,-2.3794,-2.3832,-2.3886,-2.3928,-2.391,-2.4023,-2.4007,-2.4046,-2.4045,-2.4068,-2.4066,-2.4154,-2.4092,-2.4092,-2.4092,-2.4091,0,-2.3218,-2.3281,-2.3346,-2.3394,-2.3466,-2.3508,-2.3579,-2.3618,-2.3674,-2.373,-2.3757,-2.3809,-2.3861,-2.392,-2.3954,-2.4031,-2.4048,-2.407,-2.4078,-2.4067,-2.4064,-2.4091,-2.4087,-2.4094,-2.4094,-2.4093,-2.4093,0,-2.3259,-2.3305,-2.3391,-2.3467,-2.3488,-2.3537,-2.3603,-2.365,-2.3688,-2.3759,-2.3778,-2.3838,-2.3909,-2.3957,-2.4048,-2.4071,-2.4154,-2.4161,-2.4132,-2.4136,-2.4171,-2.4167,-2.4279,-2.4296,-2.4223,-2.4224,-2.4225,0,-2.3301,-2.335,-2.3431,-2.347,-2.3509,-2.3572,-2.3615,-2.3659,-2.3704,-2.3781,-2.3819,-2.3892,-2.3953,-2.4066,-2.4118,-2.4189,-2.4198,-2.4232,-2.4208,-2.4196,-2.4198,-2.4194,-2.42,-2.4235,-2.4236,-2.4237,-2.4237,0,-2.337,-2.3391,-2.3452,-2.3522,-2.3573,-2.363,-2.3687,-2.3718,-2.3772,-2.3821,-2.3894,-2.3941,-2.4034,-2.4106,-2.4182,-2.4222,-2.4239,-2.4244,-2.4257,-2.4246,-2.4227,-2.4238,-2.4142,-2.4241,-2.4241,-2.424,-2.424,-2.424,-2.3413,-2.3458,-2.3522,-2.359,-2.3638,-2.3691,-2.3739,-2.3783,-2.3845,-2.3923,-2.3946,-2.4022,-2.4087,-2.4189,-2.4231,-2.4292,-2.4288,-2.4307,-2.4311,-2.4315,-2.4315,-2.4218,-2.4306,-2.4306,-2.4306,-2.4306,-2.4306,0,-2.3484,-2.3526,-2.3588,-2.3667,-2.372,-2.3731,-2.3796,-2.384,-2.3906,-2.3964,-2.4024,-2.4108,-2.4179,-2.4237,-2.431,-2.4347,-2.4357,-2.4365,-2.4362,-2.4372,-2.4314,-2.4296,-2.4356,-2.4356,-2.4356,-2.4356,-2.4356,-2.4356,-2.3527,-2.3603,-2.3632,-2.3733,-2.3775,-2.385,-2.3885,-2.3935,-2.3981,-2.4074,-2.4133,-2.417,-2.4229,-2.4306,-2.4372,-2.4387,-2.4413,-2.4419,-2.4436,-2.4381,-2.4376,-2.437,-2.4353,-2.4424,-2.4425,-2.4489,-2.4489,-2.449]}]]